Location: Biltmore Gardens
(41.6070°N, 83.4666°W)
Time: 15:18:03
(UTC+00:00)

Cosmos 1943 - Pass Details

Date: 14 July 2020
Orbit: 835 x 848 km, 71.0° (Epoch: 13 August)

Event Time Altitude Azimuth Distance (km) Brightness Sun altitude
Exits shadow 03:43:07 26° 97° (E) 1,604 4.3 -21.2°
Drops below altitude 10° 03:47:27 10° 48° (NE) 2,467 5.8 -21.6°
Sets 03:50:14 0° 36° (NE) 3,404 6.7 -21.9°
